SL-12 R/B(2), 25927

Orbit data source: Space-Track

SL-12 R/B(2), 25927 is space debris in HEO originally from a launch on Sun, 26 Sep 1999 UTC launched from the Tyuratam Missile And Space Complex (TTMTR). Debris objects in space refer to the collection of defunct objects orbiting the Earth. Examples of debris include non-operational satellites, rocket bodies, and fragments generated from explosions, collisions, or faulty payload assembly.

Loading next visibility...
Identifier
25927, 1999-053D
Orbit
HEO
Country
Flag of CISCIS
Related business
Manufacturer
RKKE
Mission
Spacecraft
Bus & Motor
BLOK DM2, Unknown motor
Mass
2,560 kg wet, 2,560 kg dry
Launch date (UTC)
1999-09-26 (26 years ago)
Launch vehicle
Unknown
Launch site
Tyuratam Missile And Space Complex (TTMTR)
Object type
Payload
Rocket body
Debris
Shape & HBR
Cyl + 1 Nozzle, 3.1 m
Radar Cross Section
23.684 m², Large (>1 m²)

Expand to show TLE details & history
Last TLE update: 17 hours ago

TLE from 17 hours ago
0 SL-12 R/B(2)
1 25927U 99053D   26073.12633629 -.00000029  00000-0  00000-0 0  9993
2 25927  17.7270 323.7922 5327207 262.6228 326.7484  1.89347526182621
Epoch: 2026-03-14T03:01Z
TLE epoch observation values (Epoch: 2026-03-14T03:01:55.455Z)
Latitude
2.79432°
Longitude
-82.17014°
Altitude
13,721.876 km
Speed
5.022 km/s
True Right ascension
09h 00m 15s
True Declination
2° 47' 18"
Sunlit
Object was in daylight at epoch
Visualization orbit readout
Latitude
Unknown
Longitude
Unknown
Altitude
Unknown
Speed
Unknown
Apparent Right ascension
Unknown
Apparent Declination
Unknown
Sunlit
N/A
Visualization observer readout
Local Sidereal Time
00:41:24
Azimuth
Unknown
Elevation
Unknown
Doppler factor
Unknown
Orbital elements
Apogee altitude
35,927.124 km
Perigee altitude
6,519.433 km
Semi-major axis
27,601.415 km
Eccentricity
0.53272
Inclination
17.727°
RAAN
323.7922°
Arg. of periapsis
262.6228°
True anomaly
267.94139°
Mean anomaly
326.7484°
Eccentric anomaly
300.4304°
Mean motion
0.47331 °/min
Orbital period
760.6 mins
BSTAR
0
Loading maneuver chart data...
Computing Atmospheric mass density...
Loading historical data...
Loading historical data...
Loading historical data...
Loading historical data...
Loading historical data...
Loading historical data...
Loading historical data...
Other satellites on launch #53 in the year 1999 (1999-09-26 UTC)

Documentation

Showing up to 5 results
|